Date String (YYYY-MM-DD hh:mm:ss) UTC,Instrument flags,Ambient pressure (hPa),Sample flow (lpm),Bypass flow (lpm),Sample temperature (°C),Ambient temperature (°C),ASC tube jacket temperature (°C),LED temperature (°C),Box temperature (°C),Sample RH (%),Span deviation,Mass concentration (μg/m³),Mass concentration (μg/m³),Mass concentration (μg/m³)
DateTimeUTC,F1_M11,P_M11,Q1_M11,Q2_M11,T1_M11,T2_M11,T3_M11,T4_M11,T5_M11,U1_M11,ZSPAN_M11,X0_M11,X2_M11,X1_M11
2022-08-31 11:00:00,,0831.4,4.99,0.00,30.1,29.0,00.0,38.8,32.0,21.1,0000.0,0016.97,0007.41,0006.06
2022-08-31 11:01:00,,0831.4,5.00,0.00,30.1,29.1,00.0,38.8,32.0,21.3,0000.0,0017.61,0007.41,0006.08
2022-08-31 11:02:00,,0831.4,5.01,0.00,30.1,29.1,00.0,38.8,32.0,21.2,0000.0,0017.72,0007.43,0006.11
2022-08-31 11:03:00,,0831.5,5.00,0.00,30.2,29.1,00.0,38.8,32.0,21.2,0000.0,0017.61,0007.41,0006.13
2022-08-31 11:04:00,,0831.4,4.99,0.00,30.2,29.2,00.0,38.9,32.0,21.1,0000.0,0017.15,0007.35,0006.15
2022-08-31 11:05:00,,0831.5,5.01,0.00,30.2,29.2,00.0,38.9,32.1,21.0,0000.0,0017.08,0007.39,0006.16
2022-08-31 11:06:00,,0831.4,5.00,0.00,30.2,29.2,00.0,38.9,32.1,21.0,0000.0,0017.30,0007.37,0006.18
2022-08-31 11:07:00,,0831.3,5.01,0.00,30.2,29.2,00.0,38.9,32.1,21.0,0000.0,0017.19,0007.33,0006.19
2022-08-31 11:08:00,,0831.3,4.98,0.00,30.3,29.2,00.0,38.9,32.1,20.9,0000.0,0016.66,0007.27,0006.19
2022-08-31 11:09:00,,0831.3,5.00,0.00,30.3,29.3,00.0,39.0,32.1,20.9,0000.0,0016.81,0007.29,0006.20
2022-08-31 11:10:00,,0831.3,5.00,0.00,30.3,29.0,00.0,39.0,32.1,20.8,0000.0,0016.43,0007.30,0006.21
2022-08-31 11:11:00,,0831.2,5.01,0.00,30.3,27.6,00.0,39.0,32.0,20.7,0000.0,0015.85,0007.32,0006.24
2022-08-31 11:12:00,,0831.2,4.99,0.00,30.2,27.0,00.0,38.9,31.9,20.7,0000.0,0015.48,0007.28,0006.23
2022-08-31 11:13:00,,0831.2,5.01,0.00,30.1,27.0,00.0,38.9,31.8,20.8,0000.0,0015.14,0007.31,0006.23
2022-08-31 11:14:00,,0831.2,4.99,0.00,30.0,27.3,00.0,38.8,31.7,20.9,0000.0,0015.59,0007.33,0006.24
2022-08-31 11:15:00,,0831.2,5.00,0.00,30.0,27.6,00.0,38.8,31.7,21.0,0000.0,0015.70,0007.35,0006.24
2022-08-31 11:16:00,,0831.2,5.00,0.00,30.0,27.9,00.0,38.8,31.7,21.0,0000.0,0016.20,0007.38,0006.25
2022-08-31 11:17:00,,0831.2,5.00,0.00,30.0,28.1,00.0,38.8,31.7,21.0,0000.0,0016.84,0007.43,0006.24
2022-08-31 11:18:00,,0831.2,5.00,0.00,30.0,28.3,00.0,38.8,31.7,21.0,0000.0,0016.57,0007.43,0006.23
2022-08-31 11:19:00,,0831.2,5.00,0.00,30.0,28.4,00.0,38.8,31.8,20.8,0000.0,0016.79,0007.43,0006.22
2022-08-31 11:20:00,,0831.2,5.00,0.00,30.0,28.6,00.0,38.8,31.7,20.5,0000.0,0016.42,0007.40,0006.19
2022-08-31 11:21:00,,0831.1,5.00,0.00,30.0,28.6,00.0,38.7,31.8,20.2,0000.0,0015.85,0007.26,0006.13
2022-08-31 11:22:00,,0831.2,5.00,0.00,30.0,28.7,00.0,38.7,31.8,19.6,0000.0,0016.04,0007.16,0006.05
2022-08-31 11:23:00,,0831.2,4.99,0.00,30.0,28.8,00.0,38.8,31.8,18.8,0000.0,0015.54,0007.05,0005.94
2022-08-31 11:24:00,,0831.2,5.01,0.00,30.0,28.9,00.0,38.8,31.9,19.0,0000.0,0015.32,0006.94,0005.84
2022-08-31 11:25:00,,0831.2,5.01,0.00,30.0,28.9,00.0,38.8,31.9,18.9,0000.0,0014.96,0006.82,0005.75
2022-08-31 11:26:00,,0831.2,4.98,0.00,30.1,28.9,00.0,38.8,31.9,19.5,0000.0,0014.75,0006.75,0005.67
2022-08-31 11:27:00,,0831.1,5.00,0.00,30.1,29.0,00.0,38.8,31.9,20.0,0000.0,0015.03,0006.72,0005.62
2022-08-31 11:28:00,,0831.2,5.01,0.00,30.1,29.0,00.0,38.8,32.0,19.5,0000.0,0014.33,0006.57,0005.56
2022-08-31 11:29:00,,0831.2,5.01,0.00,30.1,29.0,00.0,38.8,32.0,20.1,0000.0,0014.21,0006.51,0005.51
2022-08-31 11:30:00,,0831.2,4.99,0.00,30.1,29.1,00.0,38.8,32.0,20.3,0000.0,0014.28,0006.46,0005.47
2022-08-31 11:31:00,,0831.2,5.01,0.00,30.1,29.1,00.0,38.9,32.0,20.2,0000.0,0014.63,0006.43,0005.45
2022-08-31 11:32:00,,0831.2,5.01,0.00,30.2,29.1,00.0,38.9,32.0,20.2,0000.0,0014.79,0006.42,0005.46
2022-08-31 11:33:00,,0831.2,5.01,0.00,30.2,29.1,00.0,38.9,32.0,20.3,0000.0,0014.57,0006.44,0005.48
2022-08-31 11:34:00,,0831.2,5.00,0.00,30.2,29.1,00.0,38.9,32.1,20.3,0000.0,0014.38,0006.49,0005.54
2022-08-31 11:35:00,,0831.2,4.99,0.00,30.2,29.2,00.0,38.9,32.1,20.1,0000.0,0014.65,0006.55,0005.59
2022-08-31 11:36:00,,0831.2,5.00,0.00,30.2,29.2,00.0,38.9,32.1,19.9,0000.0,0015.27,0006.55,0005.64
2022-08-31 11:37:00,,0831.2,5.01,0.00,30.3,29.2,00.0,39.0,32.1,19.8,0000.0,0015.94,0006.58,0005.66
2022-08-31 11:38:00,,0831.2,5.01,0.00,30.3,29.2,00.0,39.0,32.1,19.7,0000.0,0015.34,0006.55,0005.66
2022-08-31 11:39:00,,0831.2,5.00,0.00,30.3,29.3,00.0,39.0,32.1,19.6,0000.0,0015.12,0006.54,0005.67
2022-08-31 11:40:00,,0831.2,4.99,0.00,30.3,29.2,00.0,39.0,32.2,19.5,0000.0,0014.60,0006.52,0005.66
2022-08-31 11:41:00,,0831.2,5.00,0.00,30.3,28.1,00.0,39.0,32.1,19.5,0000.0,0013.85,0006.49,0005.65
2022-08-31 11:42:00,,0831.2,4.99,0.00,30.3,27.0,00.0,39.0,32.0,19.6,0000.0,0013.14,0006.47,0005.63
2022-08-31 11:43:00,,0831.2,5.01,0.00,30.2,27.0,00.0,38.9,31.9,19.6,0000.0,0012.90,0006.47,0005.61
2022-08-31 11:44:00,,0831.2,5.00,0.00,30.1,27.2,00.0,38.9,31.7,19.7,0000.0,0013.36,0006.45,0005.58
2022-08-31 11:45:00,,0831.2,5.00,0.00,30.0,27.6,00.0,38.8,31.7,19.7,0000.0,0014.62,0006.41,0005.54
2022-08-31 11:46:00,,0831.3,5.01,0.00,30.0,27.8,00.0,38.8,31.7,19.8,0000.0,0015.10,0006.44,0005.52
2022-08-31 11:47:00,,0831.3,4.99,0.00,30.0,28.0,00.0,38.8,31.7,19.9,0000.0,0014.44,0006.44,0005.50
2022-08-31 11:48:00,,0831.3,5.00,0.00,30.0,28.2,00.0,38.8,31.7,19.8,0000.0,0013.98,0006.43,0005.47
2022-08-31 11:49:00,,0831.2,5.01,0.00,30.0,28.4,00.0,38.8,31.7,19.8,0000.0,0014.58,0006.41,0005.44
2022-08-31 11:50:00,,0831.2,5.00,0.00,30.0,28.5,00.0,38.8,31.8,19.8,0000.0,0014.55,0006.37,0005.41
2022-08-31 11:51:00,,0831.2,5.01,0.00,30.0,28.6,00.0,38.8,31.8,19.6,0000.0,0015.15,0006.37,0005.39
2022-08-31 11:52:00,,0831.2,5.00,0.00,30.0,28.7,00.0,38.8,31.8,19.6,0000.0,0015.09,0006.35,0005.37
2022-08-31 11:53:00,,0831.2,4.99,0.00,30.0,28.7,00.0,38.8,31.8,19.7,0000.0,0015.54,0006.37,0005.35
2022-08-31 11:54:00,,0831.2,5.01,0.00,30.0,28.8,00.0,38.8,31.9,19.6,0000.0,0016.15,0006.33,0005.32
2022-08-31 11:55:00,,0831.2,5.01,0.00,30.0,28.8,00.0,38.8,31.9,19.5,0000.0,0016.02,0006.30,0005.32
2022-08-31 11:56:00,,0831.2,4.99,0.00,30.1,28.9,00.0,38.8,31.9,19.5,0000.0,0015.59,0006.30,0005.31
2022-08-31 11:57:00,,0831.2,5.00,0.00,30.1,28.9,00.0,38.8,31.9,18.8,0000.0,0016.00,0006.24,0005.28
2022-08-31 11:58:00,,0831.2,5.01,0.00,30.1,29.0,00.0,38.8,31.9,18.2,0000.0,0016.83,0006.15,0005.24
2022-08-31 11:59:00,,0831.2,5.01,0.00,30.1,29.0,00.0,38.8,32.0,18.0,0000.0,0016.41,0006.06,0005.21
